Miscellaneous Local Product
Issued by NWS North Platte, NE

Home | Current Version | Previous Version | Text Only | Print | Product List | Glossary On
Versions: 1 2 3 4 5 6 7 8 9 10 11 12 13 14 15 16 17 18 19 20 21 22 23 24 25 26 27 28 29 30 31 32 33 34 35 36 37 38 39 40 41 42 43 44 45 46 47 48 49 50
535
AXUS43 KLBF 130810
MISLBF


WESTERN AND NORTH CENTRAL NEBRASKA HOURLY WEATHER ROUNDUP
NATIONAL WEATHER SERVICE NORTH PLATTE NE
200 AM CST SAT FEB 13 2016

NOTE: "FAIR" INDICATES FEW OR NO CLOUDS BELOW 12,000 FEET WITH NO
SIGNIFICANT WEATHER AND/OR OBSTRUCTIONS TO VISIBILITY.

NOTE: STATIONS NOT REPORTING VARIABLES SUCH AS SKY/WEATHER OR
PRESSURE ARE PROVIDED BY THE NEBRASKA DEPARTMENT OF
ROADS...RAWS...AND APRS NETWORKS...AND ARE NOT UNDER
NATIONAL WEATHER SERVICE QUALITY CONTROL.

...OBSERVATIONS IN AND NEAR THE EASTERN PANHANDLE OF NEBRASKA...

CITY           SKY/WX    TMP DP  RH WIND       PRES   REMARKS
PINE RIDGE     CLOUDY    33  28  81 S14G23    30.19F WCI  23
CHADRON        CLOUDY    34  30  85 S8        30.18F WCI  27
ALLIANCE       CLOUDY    30  29  96 S16       30.19F FOG     WCI  19
SIDNEY         CLOUDY    29  29 100 S14       30.23F FOG     WCI  18
CRESCENT LAKE    N/A     29  29 100 S13G20      N/A  WCI  19
$$

...OBSERVATIONS IN NORTH CENTRAL NEBRASKA...

CITY           SKY/WX    TMP DP  RH WIND       PRES   REMARKS
VALENTINE      CLOUDY    22  16  78 SE12      30.36F WCI  10
THEDFORD       CLOUDY    25  21  85 S15       30.34F WCI  13
AINSWORTH      FLURRIES  20  15  81 SE14G20   30.37F WCI   6
O`NEILL        CLOUDY    15   9  77 SE9       30.49F WCI   3
ORD            CLOUDY    17  12  80 SE8       30.47F WCI   7
BROKEN BOW     CLOUDY    19  15  84 S13       30.43F WCI   6
VALENTINE NWR    N/A     21  17  83 SE12        N/A  WCI   9
BUTTE            N/A     11   7  84 E12         N/A  WCI  -3
HALSEY           N/A     22  18  83 S8          N/A  WCI  13
CHAMBERS         N/A     15   6  68 SE6         N/A  WCI   6
EWING            N/A     12   7  81 CALM        N/A
$$

...OBSERVATIONS IN SOUTHWEST NEBRASKA AND FAR NORTHEAST COLORADO...

CITY           SKY/WX    TMP DP  RH WIND       PRES   REMARKS
WRAY           CLOUDY   N/A N/A N/A SE16      30.30F HAZE
HOLYOKE        CLOUDY    34  32  93 S16       30.29F FOG     WCI  23
IMPERIAL       CLOUDY    29  27  92 S18       30.33F WCI  16
OGALLALA       CLOUDY    29  27  93 SE13      30.32F FOG     WCI  19
NORTH PLATTE   CLOUDY    23  19  85 SE10      30.38F WCI  12
MCCOOK         CLOUDY    25  24  96 SE15      30.41F FOG     WCI  13
LEXINGTON      CLOUDY    22  17  83 SE10      30.45S WCI  11
STAPLETON        N/A     21  18  89 CALM        N/A
$$

...OBSERVATIONS IN CENTRAL LINCOLN COUNTY AREA...

CITY           SKY/WX    TMP DP  RH WIND       PRES   REMARKS
N.P. AIRPORT   CLOUDY    23  19  85 SE10      30.38F WCI  12
N.P. DOWNTOWN    N/A     23  21  91 SE5G12      N/A  WCI  17
N.P. SOUTHEAST   N/A     22  19  89 SE6         N/A  WCI  15
N.P. HILLCREST   N/A     22  21  94 SE12        N/A  WCI  11
$$

...SOME OBSERVATIONS FROM AROUND THE REGION...

CITY           SKY/WX    TMP DP  RH WIND       PRES   REMARKS
DENVER         FOG       27  26  96 CALM      30.17F VSB 1/4
LARAMIE        CLOUDY    42  20  41 SW16      30.18F
CHEYENNE       CLOUDY    31  29  92 SW8       30.13F WCI  23
SCOTTSBLUFF    CLOUDY    33  30  88 SE12      30.19F WCI  24
RAPID CITY     CLOUDY    26  23  88 SE15      30.15F WCI  14
BISMARCK       CLOUDY     8  -3  61 SE13      30.45F WCI  -8
PIERRE         CLOUDY    11   6  81 SE18      30.43F WCI  -7
WINNER         LGT SNOW  17  10  74 SE15      30.43F WCI   2
SIOUX FALLS    CLOUDY    -2  -8  76 NE7       30.60F WCI -15
OMAHA          CLOUDY    11   0  61 N8        30.64F WCI  -1
GRAND ISLAND   CLOUDY    16   9  74 E8        30.53F WCI   5
KANSAS CITY    CLOUDY    17   2  51 NE8       30.61R WCI   7
WICHITA        CLOUDY    29  16  58 E9        30.50S WCI  20
OKLAHOMA CITY  PTCLDY    37  27  67 NE14      30.43F WCI  28
LIBERAL        CLOUDY    27  21  80 E9        30.37S WCI  17
HAYS           CLOUDY    23  12  63 E7        30.48S WCI  15
GOODLAND       CLOUDY    27  25  92 S16       30.33F WCI  15
$$




USA.gov is the U.S. government's official web portal to all federal, state and local government web resources and services.